Temp
-1 -1 -0 -0 -1 -1 -1 -1 -2 -2 -2 -2 -3 -3 -2 -2 -2 -1 -1 -1 -1 -2 -2 -2 -2 -2 -2
-1 -2 -2 -2 -2 -2 -2 -2 -2 -3 -2 -3 -4 -4 -3 -3 -3 -2 -2 -1 -1 -2 -2 -3 -3 -3 -3
-2 -2 -3 -2 -2 -3 -3 -2 -2 -2 -2 -3 -3 -4 -4 -4 -3 -3 -3 -3 -2 -2 -2 -3 -3 -3 -4
-3 -3 -2 -2 -2 -3 -3 -3 -2 -3 -3 -3 -3 -3 -3 -3 -3 -3 -3 -3 -3 -3 -3 -3 -3 -3 -4
-3 -3 -3 -3 -3 -3 -3 -3 -3 -3 -3 -3 -3 -3 -3 -3 -3 -3 -4 -3 -4 -4 -4 -4 -3 -3 -4
-3 -2 -2 -1 -3 -4 -4 -3 -3 -4 -3 -3 -3 -3 -3 -3 -3 -4 -4 -4 -4 -3 -4 -4 -4 -4 -4
-2 -2 -2 -2 -3 -3 -4 -3 -3 -4 -4 -4 -3 -3 -3 -3 -3 -3 -3 -3 -3 -4 -4 -4 -5 -5 -5
-2 -2 -3 -3 -4 -3 -4 -4 -4 -3 -4 -3 -3 -3 -3 -3 -3 -4 -4 -4 -4 -4 -4 -4 -5 -5 -5
-2 -2 -3 -3 -4 -4 -4 -4 -4 -4 -3 -4 -3 -3 -3 -3 -4 -4 -4 -4 -4 -4 -4 -5 -5 -5 -5
-3 -2 -2 -2 -4 -4 -4 -4 -4 -4 -4 -4 -4 -4 -4 -4 -4 -4 -4 -3 -4 -4 -5 -5 -5 -5 -5
-2 -2 -2 -3 -4 -5 -5 -5 -5 -4 -5 -4 -4 -4 -4 -4 -4 -4 -4 -4 -5 -4 -5 -5 -5 -5 -6
-2 -3 -3 -4 -4 -4 -4 -4 -4 -5 -5 -5 -5 -5 -4 -4 -4 -4 -4 -5 -5 -5 -5 -5 -5 -6 -6
-3 -4 -3 -3 -3 -3 -4 -5 -5 -5 -5 -5 -5 -5 -5 -5 -5 -5 -5 -5 -5 -5 -6 -6 -6 -6 -7
-4 -4 -4 -4 -4 -4 -4 -5 -5 -5 -5 -5 -6 -5 -5 -5 -5 -5 -5 -5 -6 -6 -6 -6 -6 -7 -7
-4 -5 -4 -4 -4 -4 -5 -5 -5 -5 -5 -5 -6 -5 -5 -5 -5 -5 -6 -6 -6 -6 -6 -6 -7 -7 -8
-6 -6 -5 -4 -5 -4 -5 -6 -6 -6 -6 -6 -5 -5 -6 -6 -6 -6 -6 -6 -6 -6 -7 -7 -8 -9 -9
-6 -6 -6 -5 -5 -5 -5 -6 -6 -6 -6 -6 -6 -6 -6 -6 -6 -6 -7 -7 -7 -7 -8 -8 -9 -9 -10
Height
3085 3087 3089 3090 3091 3092 3093 3094 3095 3095 3095 3096 3097 3097 3097 3097 3098 3100 3100 3097 3097 3097 3097 3097 3096 3096 3095
3076 3078 3080 3081 3082 3083 3084 3085 3086 3088 3088 3088 3088 3088 3088 3089 3089 3089 3090 3090 3088 3088 3087 3087 3086 3086 3085
3067 3069 3071 3072 3073 3074 3076 3077 3078 3080 3080 3080 3079 3079 3080 3079 3080 3080 3081 3082 3080 3079 3079 3078 3077 3076 3076
3056 3059 3060 3062 3063 3065 3067 3069 3070 3071 3070 3070 3070 3069 3070 3071 3071 3071 3071 3071 3071 3071 3070 3069 3067 3066 3065
3047 3048 3050 3052 3054 3057 3056 3057 3058 3059 3060 3060 3061 3060 3061 3060 3060 3061 3061 3061 3061 3060 3059 3058 3058 3057 3056
3038 3037 3039 3042 3044 3045 3047 3046 3045 3050 3049 3050 3050 3048 3050 3051 3051 3051 3051 3050 3050 3049 3048 3048 3047 3048 3047
3026 3028 3028 3031 3034 3034 3035 3036 3034 3035 3036 3035 3038 3037 3038 3038 3039 3040 3040 3039 3039 3038 3036 3037 3036 3037 3037
3017 3018 3019 3021 3020 3022 3023 3023 3022 3023 3024 3022 3026 3025 3026 3025 3027 3028 3027 3028 3027 3027 3026 3026 3026 3027 3026
3008 3009 3010 3010 3010 3010 3009 3010 3009 3010 3013 3013 3013 3014 3015 3014 3015 3016 3016 3016 3016 3016 3016 3016 3016 3016 3015
2999 2999 2999 2999 2999 2999 2999 2998 2999 2996 3002 3002 3002 3003 3002 3002 3004 3005 3005 3005 3005 3005 3006 3006 3006 3005 3005
2989 2990 2990 2989 2989 2988 2988 2988 2988 2988 2990 2990 2990 2991 2990 2990 2991 2993 2993 2994 2993 2994 2995 2996 2996 2995 2995
2979 2980 2979 2979 2979 2977 2976 2976 2977 2977 2978 2978 2978 2980 2980 2979 2980 2981 2982 2983 2983 2983 2984 2985 2986 2985 2983
2969 2970 2969 2970 2969 2969 2968 2967 2969 2969 2969 2970 2970 2970 2970 2970 2971 2972 2973 2974 2975 2976 2977 2977 2975 2974 2972
2960 2961 2961 2962 2962 2962 2961 2961 2960 2961 2961 2961 2962 2962 2962 2962 2963 2965 2966 2968 2968 2968 2968 2967 2965 2963 2960
2952 2952 2953 2955 2955 2954 2954 2954 2953 2953 2953 2953 2953 2954 2955 2956 2957 2959 2960 2960 2960 2959 2958 2957 2954 2951 2947
2944 2944 2945 2947 2947 2947 2947 2947 2947 2947 2947 2947 2947 2948 2948 2950 2951 2951 2951 2950 2949 2948 2946 2945 2944 2940 2936
2936 2937 2938 2939 2939 2940 2939 2939 2941 2941 2941 2941 2941 2942 2942 2943 2944 2943 2941 2940 2939 2937 2935 2934 2934 2932 2927
Wind_Speed
33 33 35 33 34 34 36 36 34 31 32 31 32 31 32 33 32 32 33 36 37 38 38 39 38 38 38
35 34 33 30 31 36 34 34 33 33 36 33 33 34 35 36 36 36 35 36 37 38 38 39 39 39 39
40 37 38 35 36 34 34 36 35 34 34 37 37 33 37 37 36 34 34 34 36 36 37 38 40 40 40
41 38 38 38 38 37 38 37 37 37 36 37 38 37 36 35 37 38 38 39 37 37 38 38 38 39 39
40 41 41 38 39 39 43 43 41 42 44 44 44 40 35 41 37 37 37 36 42 43 43 44 44 44 40
47 48 46 42 40 39 42 38 45 38 42 39 40 43 43 46 38 38 42 41 42 44 50 46 42 43 39
46 44 44 42 35 35 39 38 38 40 43 45 44 45 45 42 43 43 41 42 50 48 47 47 44 43 41
40 39 35 41 44 41 39 37 42 41 38 43 38 38 39 37 42 44 42 47 44 47 47 45 44 46 46
37 36 40 43 42 43 48 47 48 50 46 43 46 41 41 41 43 40 38 42 47 47 47 42 42 44 45
34 37 38 39 41 44 47 48 44 43 40 43 44 44 43 45 41 39 41 44 42 45 44 44 42 45 46
34 35 36 38 38 38 40 44 45 46 44 44 45 44 45 50 49 40 41 41 40 39 39 42 42 45 43
35 32 32 32 34 35 30 34 37 35 35 39 43 39 39 39 39 37 36 37 36 33 34 34 38 39 43
33 31 32 29 28 26 27 27 26 27 29 28 28 29 29 31 32 31 28 29 26 27 31 34 38 42 43
30 32 31 27 23 22 21 21 26 30 32 31 30 29 29 29 28 26 25 25 29 33 36 38 39 41 43
29 31 28 26 24 23 22 23 25 24 21 22 27 27 24 22 24 24 28 33 35 38 38 38 39 40 39
28 29 29 31 28 26 26 22 20 20 17 16 14 16 21 23 26 28 31 35 37 38 38 37 34 35 36
29 30 31 32 34 33 31 27 24 22 20 20 19 19 21 24 28 32 34 35 36 36 35 33 29 30 32
Wind_Direction
251 259 258 260 255 254 257 261 261 265 267 269 267 268 275 278 281 277 276 274 275 276 277 277 278 278 277
262 261 260 256 255 255 256 259 267 266 272 272 268 271 270 273 276 275 276 275 275 275 276 275 276 276 275
254 253 258 260 264 263 260 265 266 266 267 271 273 276 263 269 269 279 282 277 277 280 280 278 277 276 276
259 259 258 260 259 262 266 268 268 265 266 266 273 271 272 270 276 274 273 274 273 277 279 279 275 274 274
260 258 260 261 263 264 262 266 264 262 262 267 271 265 274 271 268 272 273 276 275 270 270 273 274 274 273
249 254 261 267 269 269 268 273 272 270 269 264 265 267 272 273 267 271 273 276 275 274 272 270 271 273 273
258 261 267 269 271 272 263 271 274 272 265 264 263 268 270 262 271 266 270 269 277 280 271 268 266 269 271
263 266 268 269 272 275 276 269 271 266 266 272 272 271 273 270 263 271 267 262 272 278 268 266 263 266 271
262 266 269 269 270 271 273 271 271 270 264 273 267 272 273 266 260 266 265 267 265 271 266 265 267 268 271
259 265 267 266 264 263 265 266 268 273 271 271 267 267 269 264 267 264 268 270 268 270 266 260 266 268 274
259 265 269 269 267 266 262 262 265 270 274 272 270 269 270 269 266 270 268 265 266 267 256 264 261 272 278
263 269 272 268 267 268 270 264 268 270 267 265 266 267 265 267 267 267 264 260 266 263 260 263 272 276 277
265 268 271 267 268 268 272 273 271 264 255 255 264 268 264 268 266 266 264 261 255 269 275 276 277 279 281
267 266 268 258 255 264 266 263 256 259 258 259 262 266 271 269 260 263 257 270 280 279 280 280 279 280 283
261 261 258 247 252 256 259 261 257 260 266 265 258 261 264 259 262 260 262 271 277 281 280 279 283 286 286
262 260 257 250 259 266 259 260 259 260 264 261 265 265 260 257 259 266 272 275 278 278 281 285 286 287 287
260 261 257 257 257 267 268 249 252 250 260 257 258 258 263 264 267 271 275 277 281 284 285 287 287 285 286